COSMOS 2251 DEB

Satellite information

Favourite Embed

Satellite Type and Status

DEBRISIN ORBIT

Key statistics

Satellite COSMOS 2251 DEB at a glance.

Uptime

11764

Days in orbit

Revolutions

≈ 13.5

Per day

Orbit

LEO

Low Earth Orbit

Inclination

74.0

Latest

Satellite identification and parameters

Extended collection of information and parameters for COSMOS 2251 DEB.

Object identification

Identified? True

Debris? True

Object name: COSMOS 2251 DEB

International designator: 1993-036AMD

Object number (NORAD): 35586

Object ID (CCSDS): 35586

Country: COMMONWEALTH OF INDEPENDENT STATES (CIS)

Current information (Y/N): Y

RCS size: SMALL

Orbital parameters

Period: 106.518 minutes

Inclination: 74.0214 deg

SMA: 7443.457 km

Apoapsis: 1366.285 km

Periapsis: 764.358 km

RAAN: 139.0035 deg

Eccentricy: 0.0404333

Argument of periapsis: 39.5086 deg

Mean anomaly: 341.9819 deg

Mean motion: 13.51888176 rev/day

Mean motion (dot): 0.00000802 rev/day2

B* drag term: 0.00075013 1/REarth

Two-line elements (TLE)

Creation date: Aug. 12, 2025, 6:14 p.m.

Reference frame: TEME

Reference center: EARTH

Epoch: Aug. 12, 2025, 1:12 a.m. UTC

TLE line 0: 0 COSMOS 2251 DEB

TLE line 1: 1 35586U 93036AMD 25224.05038422 .00000802 00000-0 75013-3 0 9996

TLE line 2: 2 35586 74.0214 139.0035 0404333 39.5086 341.9819 13.51888176587245

Live tracking on map

Real-time ground track for satellite COSMOS 2251 DEB.

In-orbit conjunctions

A list of the most updated potential collisions computed for object COSMOS 2251 DEB.

Target Orbit TCA Probability of collision Miss distance Type
FENGYUN 1C DEB SSO 2025-08-02 00:01:40 0.0001274102 153.0 (m) DEBRIS
COSMOS 411 LEO 2025-05-19 09:23:13 0.0002386383 204.0 (m) PAYLOAD
CZ-6A DEB LEO 2025-01-06 16:38:02 0.0001013157 379.0 (m) DEBRIS

Associated space launch

Military communications satellite. Destroyed in a collision with Iridium 33.

COSMOS 2251 DEB was lifted into orbit during the mission ‘Kosmos-3M | Strela-2M 51’, on board a Kosmos-3M space rocket.

The launch took place on June 16, 1993, 4:17 a.m. from 132/1 (132L).

For more information about the launch, click the button.

Launch to space Kosmos-3M | Strela-2M 51
Kosmos-3M | Strela-2M 51

Agency: N/A

Status: Launch Successful

Launch date: June 16, 1993, 4:17 a.m. UTC

Rocket: Kosmos-3M

Launch pad: 132/1 (132L)

Location: Plesetsk Cosmodrome, Russian Federation

...

Latest news about this satellite

There are no fresh news available about this satellite. Check back as we update our databases every day.


Newsletter sign-up

Weekly statistics, charts and insights to help you stay on top of the space industry.